Weather in Castiglione della Pescaia

Italy     42°45′53″N   10°53′03″E
temp.,
°C
wind,
m/s
gust,
m/s
humid.,
%
clouds,
%
prec.,
mm/h
press.,
hPa
HPBL,
m
21 april, wed
wed2123:00+10ne21680 0.0 101851
02:00+9ene227692 0.0 101965
05:00+8ene2275100 0.0 101880
08:00+9ene2271100 0.0 1019128
11:00+13sse346381 0.0 1019636
14:00+14s556698 0.0 1019764
17:00+14s5565100 0.0 1018765
20:00+13sse3469100 0.0 1018417
22 april, thu
thu2223:00+12ene1172100 0.0 1019170
02:00+11ne2377100 0.4 1018126
05:00+10ene3685100 1.4 1018285
08:00+11ne347998 1.8 1018202
11:00+13ne2269100 0.0 1019412
14:00+15s1161100 0.0 1018609
17:00+15wsw3264100 0.0 1017543
20:00+13sw2273100 0.0 1017198
23 april, fri
fri2323:00+11nne11785 0.0 101953
02:00+10ne22820 0.0 101960
05:00+10ne33850 0.0 101873
08:00+11ne34800 0.0 1019139
11:00+17ne56570 0.0 1019579
14:00+19nne34554 0.0 1018940
17:00+20ne575215 0.0 1017942
20:00+15ne610670 0.0 1018213
24 april, sat
sat2423:00+13nne612690 0.0 1020324
02:00+11ne510710 0.0 1019228
05:00+9nne510730 0.0 1019236
08:00+11ne49670 0.0 1020280
11:00+17ne55540 0.0 1020486
14:00+19wsw33513 0.0 1020949
17:00+18wsw55570 0.0 1019467
20:00+15wnw23720 0.0 101952
25 april, sun
sun2523:00+13ne11720 0.0 102029
02:00+12ne227276 0.0 102049
05:00+11ne227354 0.0 102052
08:00+13ene2268100 0.0 102095
11:00+16ssw215832 0.0 1021285
14:00+17s336431 0.0 1020405
17:00+17s346397 0.0 1019319
20:00+15sse1172100 0.0 102012